Weather History for KRDG - March, 2013

Change the Weather History Date:

Thursday, March 7, 2013

  Actual Average Record
Temperature  
Mean Temperature 41 °F 38 °F  
Max Temperature 48 °F 47 °F 73 °F (1921)
Min Temperature 33 °F 28 °F 2 °F (2015)
Degree Days  
Heating Degree Days 24 27  
Month to date heating degree days 193 196  
Since 1 July heating degree days 3904 4238  
Cooling Degree Days 0 0  
Month to date cooling degree days 0 0  
Year to date cooling degree days 0 0  
Moisture  
Dew Point 23 °F    
Average Humidity 54    
Maximum Humidity 69    
Minimum Humidity 38    
Precipitation  
Precipitation 0.00 in 0.10 in 1.45 in (1967)
Month to date precipitation 0.09 0.62  
Year to date precipitation 5.03 6.15  
Sea Level Pressure  
Sea Level Pressure 30.08 in    
Wind  
Wind Speed 13 mph (North)    
Max Wind Speed 24 mph    
Max Gust Speed 31 mph    
Visibility 10 miles    
Events      
T = Trace of Precipitation, MM = Missing Value Source: NWS Daily Summary

Daily Weather History Graph

Daily Weather History Graph

Search for Another Location

Airport or City:

Trip Planner

Search our weather history database for the weather conditions in past years. The results will help you decide how hot, cold, wet, or windy it might be!

Date:

Astronomy

Mar. 07, 2013 Rise Set
Actual Time 6:27 AM EST 6:02 PM EST
Civil Twilight 6:00 AM EST 6:29 PM EST
Nautical Twilight 5:29 AM EST 7:01 PM EST
Astronomical Twilight 4:57 AM EST 7:32 PM EST
Moon 3:26 AM EST (3/7) 1:47 PM EST (3/7)
Length of Visible Light 12h 28m
Length of Day
11h 34m
Waning Crescent, 20% of the Moon is Illuminated
Mar 7
Waning Crescent
Mar 11
New
Mar 19
First Quarter
Mar 27
Full
Apr 3
Last Quarter

Hourly Weather History & Observations

Time (EST) Temp. Windchill Dew Point Humidity Pressure Visibility Wind Dir Wind Speed Gust Speed Precip Events Conditions
12:54 AM 37.0 °F 30.4 °F 25.0 °F 62% 30.01 in 10.0 mi North 9.2 mph - N/A   Mostly Cloudy
1:54 AM 37.9 °F 30.5 °F 24.1 °F 57% 30.02 in 10.0 mi North 11.5 mph - N/A   Overcast
2:54 AM 36.0 °F 29.6 °F 23.0 °F 59% 30.02 in 10.0 mi North 8.1 mph - N/A   Mostly Cloudy
3:54 AM 34.0 °F 28.8 °F 24.1 °F 67% 30.03 in 10.0 mi NNW 5.8 mph - N/A   Overcast
4:54 AM 37.0 °F 30.4 °F 24.1 °F 59% 30.03 in 10.0 mi North 9.2 mph - N/A   Mostly Cloudy
5:54 AM 37.0 °F 29.8 °F 24.1 °F 59% 30.04 in 10.0 mi North 10.4 mph 18.4 mph N/A   Overcast
6:54 AM 37.0 °F 29.3 °F 23.0 °F 57% 30.05 in 15.0 mi North 11.5 mph - N/A   Mostly Cloudy
7:54 AM 37.9 °F 30.9 °F 23.0 °F 55% 30.07 in 10.0 mi North 10.4 mph - N/A   Mostly Cloudy
8:54 AM 39.0 °F 31.4 °F 23.0 °F 53% 30.09 in 10.0 mi North 12.7 mph - N/A   Overcast
9:54 AM 39.0 °F 31.4 °F 23.0 °F 53% 30.10 in 10.0 mi North 12.7 mph 18.4 mph N/A   Overcast
10:54 AM 39.9 °F 32.5 °F 24.1 °F 53% 30.11 in 10.0 mi North 12.7 mph 19.6 mph N/A   Overcast
11:54 AM 44.1 °F 38.6 °F 24.1 °F 45% 30.10 in 10.0 mi NNW 10.4 mph 23.0 mph N/A   Mostly Cloudy
12:54 PM 45.0 °F 37.4 °F 24.1 °F 44% 30.09 in 10.0 mi NNW 18.4 mph 23.0 mph N/A   Overcast
1:54 PM 46.0 °F 38.8 °F 24.1 °F 42% 30.07 in 10.0 mi NW 18.4 mph 27.6 mph N/A   Overcast
2:54 PM 48.0 °F - 24.1 °F 39% 30.08 in 10.0 mi North 13.8 mph - N/A   Mostly Cloudy
3:54 PM 46.0 °F 38.8 °F 23.0 °F 40% 30.09 in 10.0 mi NNW 18.4 mph 24.2 mph N/A   Overcast
4:54 PM 44.1 °F 37.1 °F 21.9 °F 42% 30.10 in 10.0 mi North 15.0 mph 25.3 mph N/A   Overcast
5:54 PM 43.0 °F 36.0 °F 21.9 °F 43% 30.12 in 10.0 mi North 13.8 mph 24.2 mph N/A   Overcast
6:54 PM 42.1 °F 35.2 °F 21.9 °F 45% 30.13 in 10.0 mi North 12.7 mph 20.7 mph N/A   Overcast
7:54 PM 42.1 °F 36.1 °F 21.9 °F 45% 30.13 in 10.0 mi NNW 10.4 mph - N/A   Overcast
8:54 PM 41.0 °F 32.5 °F 23.0 °F 49% 30.13 in 10.0 mi NNW 17.3 mph 21.9 mph N/A   Overcast
9:54 PM 39.9 °F 31.1 °F 21.9 °F 49% 30.13 in 10.0 mi North 17.3 mph 25.3 mph N/A   Overcast
10:54 PM 39.0 °F 29.3 °F 18.0 °F 43% 30.13 in 10.0 mi NNW 19.6 mph 27.6 mph N/A   Overcast
11:54 PM 36.0 °F 28.0 °F 18.0 °F 48% 30.13 in 10.0 mi North 11.5 mph - N/A   Partly Cloudy